Location: Brede
(50.9167°N, 0.6000°E)
Time: 10:07:11
(UTC+00:00)

ISS - Visible Passes

Search period start: 27 October 2020 00:00
Search period end: 06 November 2020 00:00
Orbit: 417 x 420 km, 51.6° (Epoch: 27 October)

Date Brightness Start Highest point End Pass type
(mag) Time Alt. Az. Time Alt. Az. Time Alt. Az.
27 Oct -2.7 04:54:40 25° SSW 04:56:05 40° SSE 04:59:15 10° E visible
28 Oct -1.8 04:09:06 26° SE 04:09:06 26° SE 04:11:23 10° E visible
28 Oct -3.8 05:42:04 13° WSW 05:44:59 86° SSE 05:48:21 10° ENE visible
29 Oct -3.7 04:56:24 47° SW 04:57:13 70° SSE 05:00:35 10° ENE visible
30 Oct -2.0 04:10:41 33° E 04:10:41 33° E 04:12:47 10° E visible
30 Oct -3.8 05:43:38 16° W 05:46:15 77° N 05:49:37 10° E visible
31 Oct -0.2 03:24:55 10° E 03:24:55 10° E 03:24:58 10° E visible
31 Oct -3.9 04:57:52 58° W 04:58:27 83° N 05:01:50 10° E visible
01 Nov -2.0 04:12:04 32° E 04:12:04 32° E 04:14:02 10° ENE visible
01 Nov -3.8 05:45:01 17° W 05:47:32 81° N 05:50:55 10° E visible
02 Nov -3.8 04:59:12 59° WNW 04:59:44 76° N 05:03:06 10° E visible
03 Nov -1.9 04:13:23 31° ENE 04:13:23 31° ENE 04:15:17 10° E visible
03 Nov -3.7 05:46:20 17° W 05:48:46 76° SSW 05:52:07 10° ESE visible
04 Nov -3.9 05:00:31 64° WNW 05:00:58 90° NNE 05:04:21 10° ESE visible
05 Nov -1.8 04:14:43 29° E 04:14:43 29° E 04:16:33 10° E visible
05 Nov -3.1 05:47:40 18° W 05:49:52 44° SSW 05:53:05 10° SE visible
